Back to catalog

FENGYUN 1C DEB

LostPO
NORAD 47016·DEBRIS·🇨🇳 China

Launched May 10, 1999 from Taiyuan Satellite Launch Center

Loading…

Next Passes (next 24 hours)

TLE

StaleSource: Space-Track

Epoch: Sep 15, 2022, 02:48 UTC

1 47016U 99025FAS 22258.11675647  .00001881  00000-0  10214-2 0  9997
2 47016  98.0752  16.8056 0163833  33.2282 327.9049 14.06758027640296

Track FENGYUN 1C DEB in real time with AllMySat

Download on the App Store